DateTimeUTC,F1_A11,F1_S11,BsB_S11,BsG_S11,BsR_S11,BbsB_S11,BbsG_S11,BbsR_S11,BaB_A11,BaG_A11,BaR_A11,Tu_S11,T_S11,Uu_S11,U_S11,P_S11,T1_A11
2021-09-14T18:00:00Z,00000200,20000000,,,,,,,-000.56,-000.29,0000.03,18.7,25.7,02.6,01.7,0656.9,31.1
2021-09-14T18:01:00Z,00000200,20000000,,,,,,,0000.38,0000.72,-000.02,18.7,25.7,02.6,01.7,0656.9,31.1
2021-09-14T18:02:00Z,00000200,20000000,,,,,,,0000.01,-000.42,0000.12,18.7,25.7,02.5,01.6,0656.9,31.1
2021-09-14T18:03:00Z,00000200,60000000,,,,,,,0000.14,-000.06,-000.12,18.7,25.7,02.3,01.5,0656.9,31.1
2021-09-14T18:04:00Z,00000200,40000000,0002.30,0001.36,0000.43,-000.30,0000.04,0000.07,0000.36,0000.16,0000.50,18.9,25.5,02.6,01.7,0657.7,31.1
2021-09-14T18:05:00Z,00000200,00000000,0001.46,0000.85,0000.63,-000.29,-000.05,0000.16,0000.21,0000.47,0000.08,18.9,25.5,02.6,01.8,0657.8,31.1
2021-09-14T18:06:00Z,00000200,00000000,0002.12,0000.82,0000.17,0000.60,0000.31,0000.15,0000.52,0000.50,0000.37,18.9,25.5,02.6,01.7,0657.7,31.1
2021-09-14T18:07:00Z,00000200,00000000,0001.34,0000.86,0000.29,0000.67,0000.06,0000.06,-000.11,0000.26,0000.05,18.9,25.5,02.7,01.8,0657.7,31.1
2021-09-14T18:08:00Z,00000200,00000000,0001.60,0001.05,0000.77,0000.33,0000.31,0000.44,0000.48,0000.36,0000.31,18.9,25.5,02.6,01.7,0657.6,31.1
2021-09-14T18:09:00Z,00000200,00000000,0002.10,0000.88,0000.60,0000.19,0000.13,0000.23,0000.14,-000.02,0000.21,18.9,25.5,02.7,01.8,0657.7,31.1
2021-09-14T18:10:00Z,00000200,00000000,0001.97,0001.16,0000.38,0000.45,0000.41,-000.00,0000.48,0000.35,0000.22,18.9,25.5,02.7,01.8,0657.7,31.1
2021-09-14T18:11:00Z,00000200,00000000,0002.41,0001.26,0000.65,0000.21,0000.09,0000.22,0000.56,0000.67,0000.76,19.0,25.5,02.6,01.8,0657.6,31.1
2021-09-14T18:12:00Z,00000200,00000000,0001.78,0000.99,0000.87,-000.16,0000.11,0000.43,-000.11,0000.16,-000.17,19.0,25.5,02.6,01.8,0657.7,31.1
2021-09-14T18:13:00Z,00000200,00000000,0001.40,0000.84,0000.56,-000.23,0000.21,0000.06,0000.38,-000.02,0000.16,19.1,25.5,02.6,01.8,0657.7,31.1
2021-09-14T18:14:00Z,00000200,00000000,0001.96,0001.00,0000.53,-000.25,0000.29,-000.07,0000.01,0000.30,0000.35,19.1,25.6,02.6,01.7,0657.7,31.1
2021-09-14T18:15:00Z,00000200,00000000,0001.27,0001.03,0000.42,-000.06,0000.21,-000.08,0000.25,-000.09,0000.16,19.1,25.6,02.5,01.7,0657.8,31.1
2021-09-14T18:16:00Z,00000200,00000000,0002.11,0001.11,0000.65,-000.19,0000.43,0000.20,-000.17,0000.39,-000.21,19.2,25.6,02.6,01.7,0657.7,31.1
2021-09-14T18:17:00Z,00000200,00000000,0001.06,0000.50,0000.46,-000.50,0000.26,0000.04,0000.53,0000.13,0000.20,19.2,25.6,02.6,01.8,0657.7,31.1
2021-09-14T18:18:00Z,00000200,00000000,0001.46,0000.62,0000.55,-000.10,0000.09,-000.01,0000.26,0000.25,0000.24,19.1,25.6,02.5,01.7,0657.7,31.1
2021-09-14T18:19:00Z,00000200,00000000,0002.15,0000.90,0000.44,0000.28,0000.32,0000.15,0000.09,0000.33,0000.44,19.1,25.6,02.6,01.8,0657.7,31.1
2021-09-14T18:20:00Z,00000200,00000000,0001.89,0000.98,0000.11,0000.11,-000.06,0000.24,0000.33,0000.10,0000.13,19.1,25.6,02.5,01.7,0657.7,31.1
2021-09-14T18:21:00Z,00000200,00000000,0000.74,0000.70,0000.04,0000.28,0000.08,-000.00,0000.46,0000.29,-000.07,19.1,25.6,02.5,01.7,0657.7,31.1
2021-09-14T18:22:00Z,00000200,00000000,0002.20,0001.05,0000.26,-000.18,0000.22,0000.44,0000.02,-000.07,0000.13,19.1,25.6,02.6,01.7,0657.8,31.1
2021-09-14T18:23:00Z,00000200,00000000,0002.01,0000.90,0000.65,0000.44,0000.29,-000.12,0000.05,0000.08,0000.27,19.1,25.6,02.6,01.7,0657.7,31.1
2021-09-14T18:24:00Z,00000200,00000000,0001.75,0001.10,0000.33,0000.29,0000.15,0000.21,0000.29,0000.52,0000.39,19.1,25.5,02.6,01.7,0657.7,31.1
2021-09-14T18:25:00Z,00000200,00000000,0001.96,0001.02,0000.34,0000.14,0000.24,0000.13,0000.18,0000.35,0000.09,19.1,25.5,02.5,01.7,0657.7,31.1
2021-09-14T18:26:00Z,00000200,00000000,0001.84,0000.51,0000.38,0000.14,0000.04,0000.09,0000.31,0000.04,0000.27,19.1,25.5,02.5,01.7,0657.7,31.1
2021-09-14T18:27:00Z,00000200,00000000,0001.61,0001.00,0000.57,0000.17,0000.09,0000.34,0000.23,-000.09,0000.37,19.2,25.6,02.4,01.6,0657.7,31.1
2021-09-14T18:28:00Z,00000200,00000000,0001.73,0000.50,0000.44,-000.28,0000.29,0000.17,0000.05,0000.55,-000.33,19.2,25.6,02.3,01.6,0657.7,31.1
2021-09-14T18:29:00Z,00000200,00000000,0001.04,0000.70,0000.25,-000.11,-000.07,-000.23,-000.08,-000.02,0000.01,19.2,25.6,02.4,01.6,0657.7,31.1
2021-09-14T18:30:00Z,00000200,00000000,0001.74,0000.54,0000.51,0000.64,0000.29,-000.01,0000.36,0000.10,0000.54,19.2,25.6,02.4,01.6,0657.7,31.1
2021-09-14T18:31:00Z,00000200,00000000,0001.25,0000.79,0000.53,-000.30,0000.29,0000.49,0000.35,0000.54,0000.06,19.2,25.6,02.4,01.6,0657.6,31.1
2021-09-14T18:32:00Z,00000200,00000000,0001.66,0000.79,0000.69,0000.09,0000.04,0000.29,0000.17,-000.14,0000.04,19.2,25.6,02.3,01.6,0657.7,31.1
2021-09-14T18:33:00Z,00000200,00000000,0001.88,0001.13,0000.34,-000.71,0000.28,0000.07,0000.09,0000.23,0000.21,19.2,25.6,02.3,01.5,0657.7,31.1
2021-09-14T18:34:00Z,00000200,00000000,0001.52,0001.22,0000.64,-000.09,0000.22,0000.31,0000.03,0000.35,0000.10,19.2,25.6,02.3,01.6,0657.6,31.1
2021-09-14T18:35:00Z,00000200,00000000,0001.85,0000.60,0000.37,0000.41,0000.18,-000.18,0000.09,-000.33,0000.03,19.2,25.6,02.3,01.6,0657.7,31.1
2021-09-14T18:36:00Z,00000200,00000000,0001.93,0000.80,0000.41,0000.09,0000.29,0000.04,0000.45,0000.17,0000.27,19.2,25.6,02.3,01.6,0657.7,31.1
2021-09-14T18:37:00Z,00000200,00000000,0001.36,0000.79,0000.67,0000.58,0000.49,0000.08,-000.21,0000.04,0000.11,19.2,25.6,02.4,01.6,0657.7,31.1
2021-09-14T18:38:00Z,00000200,00000000,0001.28,0000.90,0000.67,-000.19,0000.37,-000.21,0000.31,0000.41,0000.12,19.1,25.6,02.2,01.5,0657.7,31.1
2021-09-14T18:39:00Z,00000200,00000000,0001.28,0000.75,0000.52,-000.24,-000.07,0000.26,0000.11,0000.08,0000.08,19.1,25.6,02.2,01.5,0657.7,31.1
2021-09-14T18:40:00Z,00000200,01000000,0001.90,0000.86,0000.57,-000.26,0000.67,0000.34,0000.35,0000.42,0000.40,19.1,25.5,02.2,01.5,0657.7,31.1
2021-09-14T18:41:00Z,00000200,00000000,0001.77,0000.60,0000.49,0000.23,0000.12,0000.20,0000.17,0000.21,-000.11,19.1,25.5,02.0,01.3,0657.7,31.1
2021-09-14T18:42:00Z,00000200,00000000,0001.72,0000.74,0000.50,-000.09,0000.45,0000.03,-000.05,-000.25,0000.22,19.1,25.5,02.1,01.4,0657.7,31.1
2021-09-14T18:43:00Z,00000200,01000000,0002.21,0000.81,0000.23,-000.01,0000.37,0000.11,-000.10,-000.20,-000.01,19.1,25.5,02.1,01.4,0657.7,31.1
2021-09-14T18:44:00Z,00000200,00000000,0001.98,0000.73,0000.40,-000.18,0000.05,0000.11,0000.34,0000.38,0000.08,19.1,25.5,02.0,01.4,0657.7,31.1
2021-09-14T18:45:00Z,00000200,01000000,0002.36,0000.80,0000.64,0000.40,-000.02,0000.39,-000.02,-000.14,-000.18,19.0,25.5,02.0,01.3,0657.7,31.1
2021-09-14T18:46:00Z,00000200,01000000,0001.49,0001.04,0000.62,0000.11,0000.16,0000.18,0000.00,0000.01,0000.15,19.1,25.5,01.9,01.3,0657.7,31.1
2021-09-14T18:47:00Z,00000200,01000000,0001.48,0000.93,0000.70,-000.49,-000.04,0000.60,0000.24,0000.44,0000.16,19.1,25.5,01.9,01.3,0657.8,31.1
2021-09-14T18:48:00Z,00000200,00000000,0001.91,0000.78,0000.18,0000.26,0000.22,0000.17,-000.31,0000.10,-000.10,19.0,25.5,01.9,01.3,0657.7,31.1
2021-09-14T18:49:00Z,00000200,01000000,0001.84,0000.61,0000.70,0000.15,0000.25,0000.52,0000.37,-000.09,0000.14,19.0,25.5,01.7,01.2,0657.8,31.1
2021-09-14T18:50:00Z,00000200,01000000,0001.60,0000.72,0000.16,0000.37,0000.17,0000.22,-000.15,0000.63,0000.34,19.0,25.5,01.8,01.2,0657.8,31.1
2021-09-14T18:51:00Z,00000200,01000000,0001.81,0000.80,0000.34,0000.58,0000.30,0000.05,0000.32,-000.31,0000.19,19.0,25.5,01.7,01.2,0657.8,31.1
2021-09-14T18:52:00Z,00000200,01000000,0002.08,0000.87,0000.18,-000.13,0000.15,0000.09,0000.34,-000.05,0000.27,19.0,25.5,01.7,01.1,0657.7,31.1
2021-09-14T18:53:00Z,00000200,01000000,0000.99,0000.70,0000.33,-000.36,0000.10,0000.20,-000.33,0000.56,-000.17,19.0,25.5,01.7,01.1,0657.8,31.1
2021-09-14T18:54:00Z,00000200,01000000,0001.20,0000.94,0000.75,0000.65,0000.43,0000.07,0000.37,-000.46,-000.20,19.0,25.5,01.6,01.1,0657.7,31.1
2021-09-14T18:55:00Z,00000200,01000000,0001.20,0000.93,0000.45,-000.16,-000.04,-000.29,0000.57,0000.66,0000.76,19.0,25.5,01.6,01.1,0657.8,31.1
2021-09-14T18:56:00Z,00000200,01000000,0001.83,0001.02,0000.93,0000.12,0000.25,0000.32,0000.13,0000.06,0000.23,19.0,25.5,01.6,01.1,0657.8,31.1
2021-09-14T18:57:00Z,00000200,40000000,,,,,,,0001.14,0001.13,0000.91,19.1,25.5,01.6,01.1,0657.6,31.1
2021-09-14T18:58:00Z,00000200,60000000,,,,,,,-000.86,-000.70,-000.56,18.9,25.7,01.8,01.2,0656.8,31.1
2021-09-14T18:59:00Z,00000200,20000000,,,,,,,0000.02,-000.04,-000.30,18.9,25.8,01.7,01.1,0656.8,31.2
